Location: Miles
(41.4492°N, 81.6087°W)
Time: 07:51:08
(UTC+00:00)

Transit 2A - Pass Details

Date: 16 September 2024
Orbit: 590 x 960 km, 66.7° (Epoch: 09 October)

Event Time Altitude Azimuth Distance (km) Brightness Sun altitude
Rises 00:35:10 0° 232° (SW) 3,415 9.9 -12.0°
Reaches altitude 10° 00:37:43 10° 239° (WSW) 2,532 9.3 -12.5°
Maximum altitude 00:43:18 41° 309° (NW) 1,310 7.7 -13.5°
Drops below altitude 10° 00:49:15 10° 19° (NNE) 2,689 8.8 -14.6°
Sets 00:52:02 0° 26° (NNE) 3,649 9.4 -15.1°
